Regional Weather Roundup
Issued by NWS

Home | Current Version | Previous Version | Graphics & Text | Print | Product List | Glossary On
Versions: 1 2 3 4 5 6 7 8 9 10 11 12 13 14 15 16 17 18 19 20 21 22 23 24 25 26 27 28 29 30 31 32 33 34 35 36 37 38 39 40 41 42 43 44 45 46 47 48 49 50
000
ASUS45 KBOI 301510
RWRID

IDAHO REGIONAL WEATHER ROUNDUP
NATIONAL WEATHER SERVICE BOISE ID
900 AM MDT TUE JUN 30 2015

NOTE: "FAIR" INDICATES FEW OR NO CLOUDS BELOW 12000 FEET
WITH NO SIGNIFICANT WEATHER AND/OR OBSTRUCTIONS TO VISIBILITY

IDZ012-014-301600-
SOUTHWEST IDAHO


CITY           SKY/WX    TMP DP  RH WIND       PRES   REMARKS
BOISE          SUNNY     79  57  46 W3        30.01F
CALDWELL       SUNNY     81  52  36 NW9       30.01F
MOUNTAIN HOME  CLOUDY    82  51  33 W6        30.03S
$$

IDZ016-017-301600-
SOUTHCENTRAL IDAHO


CITY           SKY/WX    TMP DP  RH WIND       PRES   REMARKS
BURLEY         SUNNY     75  58  55 E7        30.10S
JEROME         MOSUNNY   76  55  48 SE6       30.10S
TWIN FALLS     PTSUNNY   86  49  27 VRB3      30.08S
$$

IDZ019>023-301600-
SOUTHEAST IDAHO


CITY           SKY/WX    TMP DP  RH WIND       PRES   REMARKS
IDAHO FALLS    MOSUNNY   70  58  65 N3        30.15R
POCATELLO      SUNNY     73  58  59 CALM      30.14R
REXBURG        MOSUNNY   69  56  62 E6        30.17R
$$

IDZ006-010-011-018-031-032-301600-
CENTRAL IDAHO MOUNTAINS


CITY           SKY/WX    TMP DP  RH WIND       PRES   REMARKS
MCCALL         SUNNY     74  53  48 NW8       30.17S
HAILEY         MOSUNNY   72  54  53 NW8       30.21S
STANLEY          N/A     65  51  60 CALM      30.30S
SALMON         MOSUNNY   68  61  77 S5        30.15F
CHALLIS        MOSUNNY   70  57  63 SE6       30.20F
$$

IDZ002-004-006-007-026-301600-
NORTHERN IDAHO


CITY           SKY/WX    TMP DP  RH WIND       PRES   REMARKS
LEWISTON       SUNNY     81  59  47 CALM      29.99S
LOWELL           N/A     72  63  73 CALM      30.02F
COEUR D`ALENE  SUNNY     72  61  68 N8        30.04S
MULLAN PASS    SUNNY     65  53  65 N3        30.23R
$$



USA.gov is the U.S. government's official web portal to all federal, state and local government web resources and services.